Location: Rosenheim
(47.8408°N, 12.2113°E)
Time: 19:52:25
(UTC+02:00)

ISS - Pass Details

Date: 23 March 2017
Orbit: 399 x 409 km, 51.6° (Epoch: 29 March)

Event Time Altitude Azimuth Distance (km) Brightness Sun altitude
Exits shadow 04:29:56 22° 183° (S) 938 -2.2 -16.9°
Drops below altitude 10° 04:31:41 10° 157° (SSE) 1,469 -1.0 -16.6°
Sets 04:33:56 0° 145° (SE) 2,327 0.2 -16.3°
